This demonstration page uses our WeatherBlox Daily Observations layout. Learn more.

Left ArrowRight Arrow

39.01783, -85.05884

Hourly Observations for March 7, 2022

Temp ( °F °C ) Dew Point ( °F °C ) Humidity (%) Winds ( mph kmh ) Pressure ( in mb ) Visibility ( mi km ) Precip ( " mm )
12:03 am 00:03 Cloudy with Thunderstorms 59 15 59 15 100 100 SSE 12 19 29.85 1011 2 3 0.03 0.76
12:07 am 00:07 Cloudy with Strong Thunderstorms 59 15 58 14.4 96 96 SSE 12 19 29.84 1011 2 2 0.05 1.27
12:13 am 00:13 Cloudy with Thunderstorms 59 15 58 14.4 96 96 SSE 12 19 29.84 1011 3 4 0.13 3.30
12:16 am 00:16 Cloudy with Thunderstorms 59 15 58 14.4 96 96 SSE 12 19 29.84 1011 5 8 0.13 3.30
12:29 am 00:29 Cloudy with Nearby Thunderstorms 59 15 58 14.4 96 96 SSE 12 19 29.83 1010 10 16 0.14 3.56
12:42 am 00:42 Cloudy 59 15 58 14.4 96 96 SSE 12 19 29.81 1010 9 14 0.14 3.56
12:52 am 00:52 Cloudy 58 14.4 58 14.4 100 100 SSE 13 20 29.79 1009 10 16 0.14 3.56
1:06 am 01:06 Cloudy 58 14.4 57 13.9 97 97 SSE 14 22 29.81 1009 10 16 0.00 0.00
1:18 am 01:18 Cloudy 58 14.4 57 13.9 97 97 SSE 15 24 29.79 1009 10 16 0.00 0.00
1:52 am 01:52 Cloudy 59 15 57 13.9 93 93 SSE 13 20 29.74 1007 10 16 0.00 0.00
2:52 am 02:52 Cloudy 62 16.7 57 13.9 84 84 S 17 28 29.67 1005 10 16 0.00 0.00
3:52 am 03:52 Cloudy 64 17.8 58 14.4 81 81 SSW 21 33 29.63 1003 10 16 0.00 0.00
4:38 am 04:38 Windy with Storms Likely 64 17.8 58 14.4 81 81 SSW 22 35 29.62 1003 9 14 0.00 0.00
4:52 am 04:52 Cloudy with Nearby Thunderstorms 65 18.3 58 14.4 78 78 SSW 17 28 29.62 1003 6 10 0.00 0.00
4:58 am 04:58 Windy with Storms Likely 62 16.7 59 15 90 90 W 25 41 29.71 1006 1 2 0.01 0.25
5:00 am 05:00 Windy with Storms Likely 60 15.6 58 14.4 93 93 W 22 35 29.71 1006 1 1 0.01 0.25
5:07 am 05:07 Windy with Storms Likely 60 15.6 58 14.4 93 93 W 21 33 29.72 1006 2 2 0.17 4.32
5:09 am 05:09 Windy with Storms Likely 60 15.6 58 14.4 93 93 W 20 31 29.71 1006 3 5 0.18 4.57
5:13 am 05:13 Cloudy with Light Rain 60 15.6 58 14.4 93 93 WSW 17 28 29.72 1006 4 6 0.19 4.83
5:52 am 05:52 Cloudy with Light Rain 59 15 58 14.4 96 96 SSW 10 17 29.70 1006 7 11 0.29 7.37
6:33 am 06:33 Cloudy with Light Rain 59 15 59 15 100 100 SSW 10 17 29.72 1007 3 5 0.11 2.79
6:39 am 06:39 Cloudy with Light Rain 59 15 59 15 100 100 SSW 9 15 29.71 1006 4 6 0.13 3.30
6:52 am 06:52 Cloudy with Rain 59 15 59 15 100 100 SSW 10 17 29.69 1006 5 8 0.17 4.32
7:15 am 07:15 Cloudy with Rain 59 15 59 15 100 100 SSW 9 15 29.70 1006 4 6 0.06 1.52
7:41 am 07:41 Cloudy with Heavy Rain 59 15 59 15 100 100 SSW 8 13 29.69 1006 3 4 0.14 3.56
7:52 am 07:52 Cloudy with Light Rain 59 15 59 15 100 100 SSW 12 19 29.69 1006 4 6 0.19 4.83
8:24 am 08:24 Cloudy with Light Rain 59 15 59 15 100 100 SSW 10 17 29.67 1005 7 11 0.04 1.02
8:52 am 08:52 Cloudy with Light Rain 59 15 59 15 100 100 S 12 19 29.66 1004 8 13 0.04 1.02
9:42 am 09:42 Cloudy 60 15.6 59 15 96 96 SW 14 22 29.71 1006 10 16 0.01 0.25
9:52 am 09:52 Cloudy 60 15.6 59 15 96 96 SW 15 24 29.71 1006 10 16 0.01 0.25
10:09 am 10:09 Cloudy 60 15.6 59 15 96 96 SW 12 19 29.71 1006 10 16 0.00 0.00
10:19 am 10:19 Cloudy 60 15.6 59 15 96 96 SW 12 19 29.69 1005 10 16 0.00 0.00
10:28 am 10:28 Cloudy 62 16.7 60 15.6 93 93 SW 15 24 29.68 1005 10 16 0.00 0.00
10:52 am 10:52 Cloudy with Light Rain 61 16.1 58 14.4 90 90 SW 15 24 29.67 1005 10 16 0.00 0.00
11:30 am 11:30 Cloudy 60 15.6 58 14.4 93 93 W 23 37 29.69 1005 10 16 0.01 0.25
11:41 am 11:41 Cloudy 58 14.4 55 12.8 90 90 W 30 48 29.73 1007 10 16 0.01 0.25
11:52 am 11:52 Cloudy with Light Rain 53 11.7 51 10.6 93 93 WNW 39 63 29.74 1007 4 6 0.01 0.25
11:59 am 11:59 Cloudy with Light Rain 51 10.6 49 9.4 92 92 WNW 31 50 29.79 1009 4 6 0.00 0.00
12:30 pm 12:30 Cloudy with Light Rain 46 7.8 45 7.2 96 96 WNW 28 44 29.84 1010 5 8 0.00 0.00
12:52 pm 12:52 Cloudy 44 6.7 42 5.6 93 93 WNW 26 43 29.84 1011 7 11 0.00 0.00
1:52 pm 13:52 Cloudy 43 6.1 39 3.9 86 86 W 25 41 29.88 1012 10 16 0.00 0.00
2:08 pm 14:08 Cloudy 43 6.1 39 3.9 86 86 W 21 33 29.93 1014 10 16 0.00 0.00
2:52 pm 14:52 Cloudy 42 5.6 37 2.8 82 82 WNW 22 35 29.91 1013 10 16 0.00 0.00
3:52 pm 15:52 Cloudy 42 5.6 36 2.2 79 79 WNW 20 31 29.96 1014 10 16 0.00 0.00
4:52 pm 16:52 Cloudy 41 5 37 2.8 86 86 W 16 26 30.00 1016 10 16 0.00 0.00
5:52 pm 17:52 Cloudy with Light Rain 39 3.9 36 2.2 89 89 WNW 20 31 30.05 1018 9 14 0.00 0.00
6:06 pm 18:06 Cloudy with Light Rain 39 3.9 36 2.2 89 89 WNW 21 33 30.09 1019 9 14 0.00 0.00
6:26 pm 18:26 Cloudy 38 3.3 35 1.7 89 89 WNW 17 28 30.10 1019 10 16 0.00 0.00
6:52 pm 18:52 Cloudy 38 3.3 34 1.1 86 86 WNW 15 24 30.09 1019 10 16 0.00 0.00
7:52 pm 19:52 Cloudy 37 2.8 31 -0.6 79 79 WNW 16 26 30.13 1020 10 16 0.00 0.00
8:52 pm 20:52 Cloudy 36 2.2 28 -2.2 73 73 NW 16 26 30.16 1021 10 16 0.00 0.00
9:52 pm 21:52 Cloudy 36 2.2 29 -1.7 76 76 WNW 12 19 30.18 1022 10 16 0.00 0.00
10:52 pm 22:52 Cloudy 36 2.2 28 -2.2 73 73 WNW 10 17 30.19 1023 10 16 0.00 0.00
11:52 pm 23:52 Cloudy 35 1.7 27 -2.8 72 72 WNW 14 22 30.20 1023 10 16 0.00 0.00

Powered by AerisWeather